Orbital Elements at Epoch 2457814.5 (2017-Mar-02.0) TDB
Reference: JPL 14 (heliocentric ecliptic J2000)
Element | Value | Uncertainty (1-sigma) | Units |
e | .3539852674872025 | 1.5314e-06 | |
a | 4.163130100181197 | 1.5552e-06 | au |
q | 2.689443378084532 | 7.3031e-06 | au |
i | 9.630260344618494 | 4.9312e-05 | deg |
node | 160.8099339335319 | 0.00017916 | deg |
peri | 226.2031743285461 | 0.0015662 | deg |
M | 326.3232195905862 | 0.00068519 | deg |
tp | 2458104.739465618672 (2017-Dec-17.23946562) | 0.0057657 | TDB |
period | 3102.618669375966 8.49 | 0.0017385 4.76e-06 | d yr |
n | .1160310171383089 | 6.5016e-08 | deg/d |
Q | 5.636816822277862 | 2.1057e-06 | au |
|
| | Orbit Determination Parameters
Additional Information
|